Location: Chavannes
(47.1090°N, 0.2226°W)
Time: 13:33:37
(UTC+00:00)

Cosmos 1892 Rocket - Pass Details

Date: 16 October 2021
Orbit: 605 x 634 km, 82.5° (Epoch: 02 December)

Event Time Altitude Azimuth Distance (km) Brightness Sun altitude
Rises 18:51:55 0° 347° (NNW) 2,941 7.3 -17.8°
Reaches altitude 10° 18:54:11 10° 344° (NNW) 2,026 6.5 -18.2°
Maximum altitude 18:58:37 60° 265° (W) 721 4.1 -19.0°
Drops below altitude 10° 19:02:58 10° 186° (S) 1,995 6.1 -19.7°
Sets 19:05:12 0° 182° (S) 2,892 6.9 -20.1°
